Flag for Norway Weather past 2 weeks in Drammen, Norway

55 °F

Sprinkles. Overcast.

Feels Like: 48 °F
Forecast: 45 / 50 °F
Wind: 47 mph from Southeast

Location: Oslo / Fornebu

Current Time: Oct 7, 2015 at 1:12:07 AM

Latest Report: Oct 7, 2015 at 12:20 AM

Visibility: N/A

Pressure: 29.83 "Hg

Humidity: 63%

Dew point: 43 °F

Location of DrammenLocation

Historic Weather in Drammen — Graph


Drammen temperature yesterday

Maximum temperature yesterday: 61 °F (at 7:20 AM)
Minimum temperature yesterday: 55 °F (at 4:20 AM)
Average temperature yesterday: 58 °F

Past Weeks' High & Low Weather Summary

High61 °F (Oct 5, 11:50 PM)100% (Sep 24, 3:20 AM)30.60 "Hg (Sep 24, 3:20 AM)
Low50 °F (Sep 24, 6:50 AM)55% (Oct 6, 7:50 PM)29.50 "Hg (Sep 24, 7:50 AM)
Average53 °F84%30.02 "Hg
* Reported Sep 21 11:20 PM — Oct 6 11:20 PM, Drammen, Weather by CustomWeather, © 2015

Note: Actual official high and low records may vary slightly from our data, if they occured in-between our weather recording intervals... More about our weather records


Drammen weather history for previous 24 hours

Time TempWeatherWind HumidityBarometerVisibility
11:20 PM
Tue, Oct 6
55 °FPassing clouds.50 mph59%29.83 "HgN/A
10:50 PM57 °FPassing clouds.48 mph55%29.83 "HgN/A
10:20 PM57 °FPassing clouds.50 mph55%29.83 "HgN/A
9:50 PM57 °FPassing clouds.46 mph55%29.83 "HgN/A
9:20 PM57 °FPassing clouds.45 mph55%29.83 "HgN/A
8:50 PM57 °FPartly cloudy.47 mph55%29.80 "HgN/A
8:20 PM59 °FPassing clouds.46 mph55%29.80 "HgN/A
7:50 PM59 °FPassing clouds.50 mph55%29.80 "HgN/A
7:20 PM57 °FPassing clouds.43 mph67%29.80 "HgN/A
6:50 PM57 °FPartly sunny.50 mph59%29.80 "HgN/A
6:20 PM57 °FPassing clouds.43 mph67%29.80 "HgN/A
5:50 PM59 °FPassing clouds.39 mph68%29.80 "HgN/A
5:20 PM57 °FPartly sunny.44 mph67%29.80 "HgN/A
4:50 PM57 °FScattered clouds.45 mph67%29.80 "HgN/A
4:20 PM57 °FBroken clouds.44 mph67%29.80 "HgN/A
3:50 PM57 °FPartly sunny.47 mph72%29.80 "HgN/A
3:20 PM57 °FPartly sunny.46 mph72%29.80 "HgN/A
2:50 PM59 °FScattered clouds.44 mph72%29.80 "HgN/A
2:20 PM59 °FScattered clouds.47 mph68%29.77 "HgN/A
1:50 PM59 °FPartly sunny.47 mph68%29.77 "HgN/A
1:20 PM57 °FPartly sunny.47 mph72%29.77 "HgN/A
12:50 PM59 °FPassing clouds.47 mph68%29.77 "HgN/A
12:20 PM59 °FPassing clouds.50 mph68%29.77 "HgN/A
11:50 AM57 °FPartly sunny.50 mph77%29.77 "HgN/A
11:20 AM57 °FPartly sunny.48 mph77%29.77 "HgN/A
10:50 AM57 °FPartly sunny.48 mph77%29.77 "HgN/A
10:20 AM59 °FPartly sunny.51 mph72%29.77 "HgN/A
9:50 AM59 °FPartly sunny.48 mph72%29.77 "HgN/A
9:20 AM59 °FOvercast.52 mph68%29.74 "HgN/A
8:50 AM59 °FLight rain. Overcast.51 mph72%29.74 "HgN/A
8:20 AM59 °FPassing clouds.48 mph72%29.77 "HgN/A
7:50 AM59 °FPassing clouds.47 mph72%29.77 "HgN/A
7:20 AM61 °FOvercast.46 mph63%29.74 "HgN/A
6:50 AM59 °FOvercast.46 mph68%29.77 "HgN/A
6:20 AM59 °FPassing clouds.44 mph68%29.77 "HgN/A
5:50 AM57 °FPassing clouds.45 mph72%29.77 "HgN/A
5:20 AM57 °FPassing clouds.46 mph72%29.77 "HgN/A
4:50 AM57 °FPassing clouds.43 mph67%29.80 "HgN/A
4:20 AM55 °FSprinkles. Passing clouds.43 mph72%29.80 "HgN/A
3:50 AM57 °FPassing clouds.44 mph67%29.80 "HgN/A
3:20 AM57 °FPartly cloudy.45 mph67%29.80 "HgN/A
2:50 AM57 °FPassing clouds.45 mph67%29.80 "HgN/A
2:20 AM59 °FPassing clouds.47 mph63%29.83 "HgN/A
1:50 AM59 °FPassing clouds.40 mph68%29.83 "HgN/A
1:20 AM57 °FPassing clouds.39 mph72%29.83 "HgN/A
Weather by CustomWeather, © 2015

See weather overviewHow to use our weather pages